Portada
METAR-TAF:

METAR-TAF

Aeropuertos :

Dyersburg, Tennessee, Estados Unidos

latitud: 36-00N, longitud: 089-24W, altitud: 103 m

Observación

El informe se hizo hace 50 minutos, a las 01:56 UTC
Viento 5 kt del sur-sureste
Temperatura 23°C
Humedad 89%
Presión 1012 hPa
Visibilidad: 16.1 km
Cielo despejado

METAR: KDYR 280156Z AUTO 15005KT 10SM CLR 23/21 A2987 RMK AO2 SLP119 T02330211 PNO $

Hora: 21:46 (02:46 UTC)


TAF: falta

Observaciones y pronósticos meteorológicos de más de 4000 aeropuertos (mensajes METAR y TAF).

Los puntos amarillos y rojos representan las estaciones disponibles.

Ponga el ratón en el punto deseado para ver el nombre de la estación.

Haga clic para ver las observaciones y los pronósticos meteorológicos.

Para cambiar el mapa : haga clic en los botones verdes con una cruz de color negro para hacer un zoom, en el botón verde con un guión para alejar o en las flechas verdes para mapas adyacentes.


METAR-TAF: